N9LYA-3 Weather Reports


Display with metric or nautical units.
time (UTC)temp
F
wind
direction
speed
MPH
gust
MPH
rain 1hr
in
rain 24hr
in
rain mn
in
humidity
%
barometer
mb
20260906101623 73 0 0.0 0.0 0.00 0.00 0.00 99 1014.6
20260906101023 73 38 0.0 0.0 0.00 0.00 0.00 99 1014.6
20260906100723 73 37 0.0 2.0 0.00 0.00 0.00 99 1014.6
20260906100123 73 29 0.0 0.0 0.00 0.00 0.00 99 1014.6
20260906095823 73 5 0.0 2.0 0.00 0.00 0.00 99 1014.6
20260906095524 73 5 0.0 2.0 0.00 0.00 0.00 99 1014.6
20260906095223 73 45 0.0 2.0 0.00 0.00 0.00 99 1014.6
20260906094924 73 1 0.0 3.0 0.00 0.00 0.00 99 1014.6
20260906094623 73 1 0.0 3.0 0.00 0.00 0.00 99 1014.6
20260906094323 73 52 0.0 0.0 0.00 0.00 0.00 99 1014.6
20260906094023 73 52 0.0 0.0 0.00 0.00 0.00 99 1014.6
20260906093723 73 60 0.0 0.0 0.00 0.00 0.00 99 1014.6
20260906093123 73 36 0.0 3.0 0.00 0.00 0.00 99 1014.6
20260906092823 73 36 0.0 0.0 0.00 0.00 0.00 99 1014.6
20260906092223 73 357 0.0 2.0 0.00 0.00 0.00 99 1014.6
20260906091923 73 0 0.0 3.0 0.00 0.00 0.00 99 1014.6
20260906091623 73 0 0.0 3.0 0.00 0.00 0.00 99 1014.6
20260906091023 73 0 0.0 0.0 0.00 0.00 0.00 99 1014.6
20260906090723 73 8 0.0 2.0 0.00 0.00 0.00 99 1014.6
20260906090123 73 29 0.0 0.0 0.00 0.00 0.00 99 1014.6
20260906085825 73 23 0.0 0.0 0.00 0.00 0.00 99 1014.6
20260906085523 73 23 0.0 0.0 0.00 0.00 0.00 99 1014.6
20260906085223 73 18 0.0 0.0 0.00 0.00 0.00 99 1014.6
20260906084923 73 35 0.0 0.0 0.00 0.00 0.00 99 1014.6
20260906084623 73 35 0.0 0.0 0.00 0.00 0.00 99 1014.6
20260906084324 73 8 0.0 4.0 0.00 0.00 0.00 99 1013.6
20260906084024 73 8 0.0 4.0 0.00 0.00 0.00 99 1013.6
20260906083725 73 5 0.0 0.0 0.00 0.00 0.00 99 1013.6
20260906083424 73 36 0.0 2.0 0.00 0.00 0.00 99 1013.6
20260906083123 73 36 0.0 2.0 0.00 0.00 0.00 99 1013.6
20260906082823 73 14 0.0 0.0 0.00 0.00 0.00 99 1013.6
20260906082223 73 12 0.0 0.0 0.00 0.00 0.00 99 1013.6
20260906081923 73 18 0.0 0.0 0.00 0.00 0.00 99 1013.6
20260906081623 73 18 0.0 0.0 0.00 0.00 0.00 99 1013.6
20260906081323 73 0 0.0 0.0 0.00 0.00 0.00 99 1013.6
20260906081023 73 0 0.0 0.0 0.00 0.00 0.00 99 1013.6
20260906080423 73 10 0.0 0.0 0.00 0.00 0.00 99 1013.5
20260906080123 73 10 0.0 0.0 0.00 0.00 0.00 99 1013.5
20260906075823 73 353 0.0 2.0 0.00 0.00 0.00 99 1013.5
20260906075524 73 353 0.0 2.0 0.00 0.00 0.00 99 1013.5
20260906075223 73 37 0.0 0.0 0.00 0.00 0.00 99 1013.5
20260906074923 73 5 0.0 3.0 0.00 0.00 0.00 99 1013.5
20260906074623 73 5 0.0 3.0 0.00 0.00 0.00 99 1013.5
20260906074323 73 7 0.0 0.0 0.00 0.00 0.00 99 1013.5
20260906073723 73 39 0.0 0.0 0.00 0.00 0.00 99 1013.5
20260906073123 73 9 0.0 0.0 0.00 0.00 0.00 99 1013.5
20260906072823 73 0 0.0 0.0 0.00 0.00 0.00 99 1013.5
20260906072523 73 0 0.0 0.0 0.00 0.00 0.00 99 1013.5
20260906071625 73 57 0.0 0.0 0.00 0.00 0.00 99 1013.5
20260906071325 73 19 0.0 2.0 0.00 0.00 0.00 99 1013.5
20260906071023 73 19 0.0 2.0 0.00 0.00 0.00 99 1013.5
20260906070725 73 22 0.0 2.0 0.00 0.00 0.00 99 1013.5
20260906070424 73 357 0.0 0.0 0.00 0.00 0.00 99 1013.5
20260906070123 73 357 0.0 0.0 0.00 0.00 0.00 99 1013.5
20260906065823 73 111 0.0 2.0 0.00 0.00 0.00 99 1013.5
20260906065524 73 111 0.0 2.0 0.00 0.00 0.00 99 1013.5
20260906065223 73 345 0.0 0.0 0.00 0.00 0.00 99 1013.5
20260906064923 73 345 0.0 0.0 0.00 0.00 0.00 99 1013.5
20260906064623 73 345 0.0 0.0 0.00 0.00 0.00 99 1013.5
20260906064325 73 350 0.0 0.0 0.00 0.00 0.00 99 1014.5
20260906063125 73 357 0.0 0.0 0.00 0.00 0.00 99 1014.5
20260906062823 73 357 0.0 0.0 0.00 0.00 0.00 99 1014.5
20260906062523 73 357 0.0 0.0 0.00 0.00 0.00 99 1014.5
20260906062225 73 357 0.0 0.0 0.00 0.00 0.00 99 1014.6
20260906061923 73 357 0.0 0.0 0.00 0.00 0.00 99 1014.6
20260906061024 73 357 0.0 0.0 0.00 0.00 0.00 99 1014.6
20260906060723 73 10 0.0 0.0 0.00 0.00 0.00 99 1014.6
20260906060423 73 5 0.0 0.0 0.00 0.00 0.00 99 1014.6
20260906060126 73 5 0.0 0.0 0.00 0.00 0.00 99 1014.6
20260906055824 73 5 0.0 0.0 0.00 0.00 0.00 99 1014.6
20260906055523 73 5 0.0 0.0 0.00 0.00 0.00 99 1014.6
20260906055223 73 0 0.0 0.0 0.00 0.00 0.00 99 1014.6
20260906054923 73 0 0.0 0.0 0.00 0.00 0.00 99 1014.6
20260906054624 73 0 0.0 0.0 0.00 0.00 0.00 99 1014.6
20260906054023 73 0 0.0 0.0 0.00 0.00 0.00 99 1014.6
20260906053723 73 0 0.0 0.0 0.00 0.00 0.00 99 1014.6
20260906053123 73 0 0.0 0.0 0.00 0.00 0.00 99 1014.6
20260906052825 73 0 0.0 0.0 0.00 0.00 0.00 99 1014.6
20260906052523 73 0 0.0 0.0 0.00 0.00 0.00 99 1014.6
20260906052223 73 0 0.0 0.0 0.00 0.00 0.00 99 1013.6
20260906051923 73 0 0.0 0.0 0.00 0.00 0.00 99 1013.6
20260906051625 73 0 0.0 0.0 0.00 0.00 0.00 99 1013.6
20260906051323 73 0 0.0 0.0 0.00 0.00 0.00 99 1013.6
20260906051023 73 0 0.0 0.0 0.00 0.00 0.00 99 1013.6
20260906050723 73 0 0.0 0.0 0.00 0.00 0.00 99 1013.6
20260906050125 73 0 0.0 0.0 0.00 0.00 0.00 99 1013.6
20260906045823 73 0 0.0 0.0 0.00 0.00 0.00 99 1013.6
20260906045523 73 0 0.0 0.0 0.00 0.00 0.00 99 1013.6
20260906045223 73 0 0.0 0.0 0.00 0.00 0.00 99 1013.6
20260906044623 73 0 0.0 0.0 0.00 0.00 0.00 99 1013.6
20260906044323 73 0 0.0 0.0 0.00 0.00 0.00 99 1013.6
20260906044023 73 0 0.0 0.0 0.00 0.00 0.00 99 1013.6
20260906043723 73 0 0.0 0.0 0.00 0.00 0.00 99 1013.6
20260906043423 73 0 0.0 0.0 0.00 0.00 0.00 99 1013.6
20260906043123 73 0 0.0 0.0 0.00 0.00 0.00 99 1013.6
20260906042823 73 0 0.0 0.0 0.00 0.00 0.00 99 1013.6
20260906042523 73 0 0.0 0.0 0.00 0.00 0.00 99 1013.6
20260906042223 73 0 0.0 0.0 0.00 0.00 0.00 99 1013.6
20260906041923 73 0 0.0 0.0 0.00 0.00 0.00 99 1013.6
20260906041623 73 0 0.0 0.0 0.00 0.00 0.00 99 1013.6
20260906041023 71 0 0.0 0.0 0.00 0.00 0.00 99 1013.6
20260906040723 71 0 0.0 0.0 0.00 0.00 0.00 99 1013.6
20260906040423 71 0 0.0 0.0 0.00 0.00 0.00 99 1013.6
20260906040125 71 0 0.0 0.0 0.00 0.00 0.00 99 1013.6
20260906035825 73 0 0.0 0.0 0.00 0.00 0.00 99 1013.6
20260906035523 73 0 0.0 0.0 0.00 0.00 0.00 99 1013.6
20260906035223 73 0 0.0 0.0 0.00 0.00 0.00 99 1013.6
20260906034923 73 0 0.0 0.0 0.00 0.00 0.00 99 1013.6
20260906034623 73 0 0.0 0.0 0.00 0.00 0.00 99 1013.6
20260906034325 73 0 0.0 0.0 0.00 0.00 0.00 99 1013.6
20260906033723 73 0 0.0 0.0 0.00 0.00 0.00 99 1013.6
20260906033423 73 0 0.0 0.0 0.00 0.00 0.00 99 1013.6
20260906033123 73 0 0.0 0.0 0.00 0.00 0.00 99 1013.6
20260906032823 73 0 0.0 0.0 0.00 0.00 0.00 99 1013.6
20260906032523 73 0 0.0 0.0 0.00 0.00 0.00 99 1013.6
20260906032223 73 0 0.0 0.0 0.00 0.00 0.00 99 1013.6
20260906031923 73 0 0.0 0.0 0.00 0.00 0.00 99 1013.6
20260906031623 73 0 0.0 0.0 0.00 0.00 0.00 99 1013.6
20260906031323 73 0 0.0 0.0 0.00 0.00 0.00 99 1013.6
20260906031023 73 0 0.0 0.0 0.00 0.00 0.00 99 1013.6
20260906030723 73 0 0.0 0.0 0.00 0.00 0.00 99 1013.6
20260906030423 73 0 0.0 0.0 0.00 0.00 0.00 99 1013.6
20260906030125 73 0 0.0 0.0 0.00 0.00 0.00 99 1013.6
20260906025825 73 0 0.0 0.0 0.00 0.00 0.00 99 1013.5
20260906025523 73 0 0.0 0.0 0.00 0.00 0.00 99 1013.5
20260906025223 73 0 0.0 0.0 0.00 0.00 0.00 99 1013.5
20260906024923 73 0 0.0 0.0 0.00 0.00 0.00 99 1013.5
20260906024623 73 0 0.0 0.0 0.00 0.00 0.00 99 1013.5
20260906024325 73 3 0.0 0.0 0.00 0.00 0.00 99 1013.5
20260906024026 73 3 0.0 0.0 0.00 0.00 0.00 99 1013.5
20260906023723 73 3 0.0 0.0 0.00 0.00 0.00 99 1013.5
20260906023423 73 3 0.0 0.0 0.00 0.00 0.00 99 1013.5
20260906023123 73 3 0.0 0.0 0.00 0.00 0.00 99 1013.5
20260906022525 73 3 0.0 0.0 0.00 0.00 0.00 99 1013.5
20260906021923 73 3 0.0 0.0 0.00 0.00 0.00 99 1012.5
20260906021623 73 3 0.0 0.0 0.00 0.00 0.00 99 1012.5
20260906021324 73 3 0.0 0.0 0.00 0.00 0.00 99 1012.5
20260906021023 73 3 0.0 0.0 0.00 0.00 0.00 99 1012.5
20260906020723 73 3 0.0 0.0 0.00 0.00 0.00 99 1012.5
20260906020423 73 3 0.0 0.0 0.00 0.00 0.00 99 1012.5
20260906020125 73 3 0.0 0.0 0.00 0.00 0.00 99 1012.5
20260906015823 73 259 0.0 0.0 0.00 0.00 0.00 99 1012.5
20260906015523 73 259 0.0 0.0 0.00 0.00 0.00 99 1012.5
20260906015225 73 259 0.0 0.0 0.00 0.00 0.00 99 1012.5
20260906014926 73 259 0.0 0.0 0.00 0.00 0.00 99 1012.5
20260906014625 73 259 0.0 0.0 0.00 0.00 0.00 99 1012.5
20260906014025 73 259 0.0 0.0 0.00 0.00 0.00 99 1012.5
20260906013725 73 259 0.0 0.0 0.00 0.00 0.00 99 1012.5
20260906013425 73 259 0.0 0.0 0.00 0.00 0.00 99 1012.5
20260906013125 73 259 0.0 0.0 0.00 0.00 0.00 99 1012.5
20260906012823 73 259 0.0 0.0 0.00 0.00 0.00 99 1012.5
20260906012523 73 259 0.0 0.0 0.00 0.00 0.00 99 1012.5
20260906012223 73 259 0.0 0.0 0.00 0.00 0.00 99 1012.5
20260906011625 73 259 0.0 0.0 0.00 0.00 0.00 99 1012.5
20260906011325 73 259 0.0 0.0 0.00 0.00 0.00 99 1012.5
20260906011026 73 259 0.0 0.0 0.00 0.00 0.00 99 1012.5
20260906010723 75 259 0.0 0.0 0.00 0.00 0.00 99 1012.5
20260906010425 75 258 0.0 0.0 0.00 0.00 0.00 99 1012.5
20260906010125 75 258 0.0 0.0 0.00 0.00 0.00 99 1012.5
20260906005823 75 259 0.0 0.0 0.00 0.00 0.00 99 1012.5
20260906005526 75 259 0.0 0.0 0.00 0.00 0.00 99 1012.5
20260906005225 75 259 0.0 0.0 0.00 0.00 0.00 99 1012.5
20260906004923 75 259 0.0 0.0 0.00 0.00 0.00 99 1012.4
20260906004625 75 259 0.0 0.0 0.00 0.00 0.00 99 1012.4
20260906004325 75 259 0.0 0.0 0.00 0.00 0.00 99 1012.4
20260906004025 75 259 0.0 0.0 0.00 0.00 0.00 99 1012.4
20260906003425 75 259 0.0 0.0 0.00 0.00 0.00 99 1012.4
20260906003125 75 259 0.0 0.0 0.00 0.00 0.00 99 1012.4
20260906002525 75 259 0.0 0.0 0.00 0.00 0.00 99 1012.4
20260906001925 75 259 0.0 0.0 0.00 0.00 0.00 99 1012.4
20260906001625 75 259 0.0 0.0 0.00 0.00 0.00 99 1012.4
20260906001323 75 259 0.0 0.0 0.00 0.00 0.00 99 1012.4
20260906001023 75 259 0.0 0.0 0.00 0.00 0.00 99 1012.4
20260906000725 75 259 0.0 0.0 0.00 0.00 0.00 97 1012.4
20260906000125 75 259 0.0 0.0 0.00 0.00 0.00 95 1012.4
20260905235525 75 259 0.0 0.0 0.00 0.00 0.00 95 1012.4
20260905235225 75 259 0.0 0.0 0.00 0.00 0.00 95 1012.4
20260905234925 75 259 0.0 0.0 0.00 0.00 0.00 95 1012.4
20260905234521 75 259 0.0 0.0 0.00 0.00 0.00 95 1012.4
20260905222953 86 320 3.0 12.0 0.00 0.00 0.00 63 1012.0
20260905222651 86 320 3.0 12.0 0.00 0.00 0.00 63 1012.0
20260905222351 87 292 0.0 14.0 0.00 0.00 0.00 61 1011.9
20260905222053 87 292 0.0 14.0 0.00 0.00 0.00 61 1011.9
20260905221753 89 263 3.0 13.0 0.00 0.00 0.00 61 1011.8
20260905221451 91 312 0.0 10.0 0.00 0.00 0.00 61 1011.7
20260905221151 91 312 0.0 10.0 0.00 0.00 0.00 61 1011.7
20260905220851 93 294 0.0 2.0 0.00 0.00 0.00 61 1010.7
20260905220551 93 294 0.0 2.0 0.00 0.00 0.00 61 1010.7
20260905220251 93 344 0.0 2.0 0.00 0.00 0.00 61 1010.6
20260905215953 93 348 0.0 0.0 0.00 0.00 0.00 61 1010.6
20260905215652 93 348 0.0 0.0 0.00 0.00 0.00 61 1010.6
20260905215353 93 349 0.0 0.0 0.00 0.00 0.00 59 1011.6
20260905215051 93 349 0.0 0.0 0.00 0.00 0.00 59 1011.6
20260905214751 93 316 0.0 0.0 0.00 0.00 0.00 59 1011.6
20260905214451 95 299 0.0 0.0 0.00 0.00 0.00 59 1011.6
20260905214153 95 299 0.0 0.0 0.00 0.00 0.00 59 1011.6
20260905213853 95 353 0.0 0.0 0.00 0.00 0.00 59 1011.5
20260905213553 95 353 0.0 0.0 0.00 0.00 0.00 59 1011.5
20260905213251 96 342 0.0 3.0 0.00 0.00 0.00 59 1011.5
20260905212951 96 307 0.0 3.0 0.00 0.00 0.00 59 1011.5
20260905212651 96 307 0.0 3.0 0.00 0.00 0.00 59 1011.5
20260905212353 96 338 0.0 2.0 0.00 0.00 0.00 59 1011.5
20260905212053 96 338 0.0 2.0 0.00 0.00 0.00 59 1011.5
20260905211751 96 283 0.0 3.0 0.00 0.00 0.00 59 1011.5
20260905211451 96 292 0.0 3.0 0.00 0.00 0.00 57 1011.4
20260905211151 96 292 0.0 3.0 0.00 0.00 0.00 57 1011.4
20260905210851 96 326 0.0 0.0 0.00 0.00 0.00 57 1011.4
20260905210551 96 326 0.0 0.0 0.00 0.00 0.00 57 1011.4
20260905205951 98 353 0.0 0.0 0.00 0.00 0.00 57 1011.4
20260905205656 98 353 0.0 0.0 0.00 0.00 0.00 57 1011.4
20260905205351 98 294 0.0 8.0 0.00 0.00 0.00 57 1011.4
20260905205051 98 294 0.0 8.0 0.00 0.00 0.00 57 1011.4
20260905204451 98 353 0.0 10.0 0.00 0.00 0.00 57 1011.4
20260905204153 98 353 0.0 10.0 0.00 0.00 0.00 57 1011.4
20260905203851 98 311 0.0 4.0 0.00 0.00 0.00 57 1011.4
20260905203551 98 311 0.0 4.0 0.00 0.00 0.00 57 1011.4
20260905202951 98 322 0.0 5.0 0.00 0.00 0.00 57 1011.4
20260905202651 98 322 0.0 5.0 0.00 0.00 0.00 57 1011.4
20260905202351 98 334 0.0 3.0 0.00 0.00 0.00 57 1011.4
20260905202053 98 334 0.0 3.0 0.00 0.00 0.00 57 1011.4
20260905201753 98 11 0.0 2.0 0.00 0.00 0.00 57 1011.4
20260905201451 98 290 0.0 0.0 0.00 0.00 0.00 57 1011.4
20260905201153 98 290 0.0 0.0 0.00 0.00 0.00 57 1011.4
20260905200851 96 320 0.0 5.0 0.00 0.00 0.00 57 1011.4
20260905200553 96 320 0.0 5.0 0.00 0.00 0.00 57 1011.4
20260905200254 96 357 0.0 0.0 0.00 0.00 0.00 57 1011.4
20260905195951 96 0 0.0 0.0 0.00 0.00 0.00 57 1011.4
20260905195651 96 0 0.0 0.0 0.00 0.00 0.00 57 1011.4
20260905195351 96 327 0.0 0.0 0.00 0.00 0.00 57 1012.5
20260905195051 96 327 0.0 0.0 0.00 0.00 0.00 57 1012.5
20260905194753 96 344 0.0 3.0 0.00 0.00 0.00 57 1012.5
20260905194451 96 36 0.0 5.0 0.00 0.00 0.00 57 1012.5
20260905194153 96 36 0.0 5.0 0.00 0.00 0.00 57 1012.5
20260905193851 96 21 0.0 0.0 0.00 0.00 0.00 57 1012.5
20260905193551 96 21 0.0 0.0 0.00 0.00 0.00 57 1012.5
20260905193251 96 317 0.0 0.0 0.00 0.00 0.00 57 1012.5
20260905192953 96 289 0.0 0.0 0.00 0.00 0.00 57 1012.5
20260905192651 96 289 0.0 0.0 0.00 0.00 0.00 57 1012.5
20260905192353 96 260 0.0 3.0 0.00 0.00 0.00 57 1012.5
20260905192053 96 260 0.0 3.0 0.00 0.00 0.00 57 1012.5
20260905191753 96 264 0.0 4.0 0.00 0.00 0.00 57 1012.5
20260905191153 96 288 0.0 3.0 0.00 0.00 0.00 57 1012.5
20260905190552 96 4 0.0 2.0 0.00 0.00 0.00 57 1012.5
20260905190251 96 292 0.0 0.0 0.00 0.00 0.00 59 1012.5
20260905185951 96 237 0.0 5.0 0.00 0.00 0.00 59 1012.5
20260905185651 96 237 0.0 5.0 0.00 0.00 0.00 59 1012.5
20260905185351 95 218 0.0 3.0 0.00 0.00 0.00 59 1012.5
20260905185051 95 218 0.0 3.0 0.00 0.00 0.00 59 1012.5
20260905184751 95 204 0.0 0.0 0.00 0.00 0.00 59 1012.6
20260905184451 95 295 0.0 0.0 0.00 0.00 0.00 59 1012.6
20260905184153 95 295 0.0 0.0 0.00 0.00 0.00 59 1012.6
20260905183853 95 158 0.0 0.0 0.00 0.00 0.00 59 1013.6
20260905183251 95 229 0.0 6.0 0.00 0.00 0.00 59 1013.6
20260905182651 95 247 0.0 3.0 0.00 0.00 0.00 59 1013.6
20260905182351 95 238 0.0 0.0 0.00 0.00 0.00 59 1013.6
20260905182051 95 238 0.0 0.0 0.00 0.00 0.00 59 1013.6
20260905181751 93 300 0.0 2.0 0.00 0.00 0.00 59 1013.6
20260905181151 93 266 0.0 0.0 0.00 0.00 0.00 59 1013.7
20260905180553 93 154 0.0 0.0 0.00 0.00 0.00 59 1013.7
20260905180251 93 135 0.0 4.0 0.00 0.00 0.00 59 1013.7
20260905175953 93 198 0.0 0.0 0.00 0.00 0.00 59 1013.7
20260905175652 93 198 0.0 0.0 0.00 0.00 0.00 59 1013.7
20260905175351 93 170 0.0 0.0 0.00 0.00 0.00 59 1013.7
20260905175053 93 170 0.0 0.0 0.00 0.00 0.00 59 1013.7
20260905174753 93 209 0.0 0.0 0.00 0.00 0.00 59 1013.7
20260905174151 93 145 0.0 3.0 0.00 0.00 0.00 59 1013.7
20260905173852 93 250 0.0 2.0 0.00 0.00 0.00 61 1013.7
20260905173553 93 250 0.0 2.0 0.00 0.00 0.00 61 1013.7
20260905173251 93 222 0.0 2.0 0.00 0.00 0.00 61 1013.7
20260905172953 93 196 0.0 3.0 0.00 0.00 0.00 61 1013.7
20260905172653 93 196 0.0 3.0 0.00 0.00 0.00 61 1013.7
20260905172351 93 71 0.0 0.0 0.00 0.00 0.00 61 1013.7
20260905172053 93 71 0.0 0.0 0.00 0.00 0.00 61 1013.7
20260905171753 91 193 0.0 0.0 0.00 0.00 0.00 61 1013.7
20260905171451 91 134 0.0 0.0 0.00 0.00 0.00 61 1013.7
20260905171151 91 134 0.0 0.0 0.00 0.00 0.00 61 1013.7
20260905170553 91 202 0.0 0.0 0.00 0.00 0.00 61 1013.8
20260905170252 91 216 0.0 5.0 0.00 0.00 0.00 61 1013.8
20260905165951 91 185 0.0 6.0 0.00 0.00 0.00 61 1013.8
20260905165653 91 185 0.0 6.0 0.00 0.00 0.00 61 1013.8
20260905165353 91 199 0.0 0.0 0.00 0.00 0.00 61 1014.8
20260905165051 91 199 0.0 0.0 0.00 0.00 0.00 61 1014.8
20260905164753 91 110 0.0 3.0 0.00 0.00 0.00 61 1014.8
20260905164453 89 134 0.0 0.0 0.00 0.00 0.00 61 1014.8
20260905164153 89 134 0.0 0.0 0.00 0.00 0.00 61 1014.8
20260905163851 89 191 0.0 0.0 0.00 0.00 0.00 61 1014.9
20260905163553 89 191 0.0 0.0 0.00 0.00 0.00 61 1014.9
20260905163251 89 130 0.0 2.0 0.00 0.00 0.00 61 1014.9
20260905162951 89 179 0.0 0.0 0.00 0.00 0.00 61 1014.9
20260905162651 89 179 0.0 0.0 0.00 0.00 0.00 61 1014.9
20260905162351 89 153 0.0 0.0 0.00 0.00 0.00 61 1014.9
20260905162051 89 153 0.0 0.0 0.00 0.00 0.00 61 1014.9
20260905161751 89 151 0.0 2.0 0.00 0.00 0.00 61 1014.9
20260905161153 89 155 0.0 0.0 0.00 0.00 0.00 61 1014.9
20260905160851 89 130 0.0 4.0 0.00 0.00 0.00 61 1014.9
20260905160251 89 232 0.0 0.0 0.00 0.00 0.00 61 1014.9
20260905155951 87 125 0.0 4.0 0.00 0.00 0.00 61 1014.9
20260905155652 87 125 0.0 4.0 0.00 0.00 0.00 61 1014.9
20260905155351 89 148 0.0 3.0 0.00 0.00 0.00 63 1014.9
20260905155051 89 148 0.0 3.0 0.00 0.00 0.00 63 1014.9
20260905154753 87 194 0.0 3.0 0.00 0.00 0.00 61 1014.9
20260905154153 87 202 0.0 5.0 0.00 0.00 0.00 63 1014.9
20260905153853 87 148 0.0 2.0 0.00 0.00 0.00 63 1015.0
20260905153553 87 148 0.0 2.0 0.00 0.00 0.00 63 1015.0
20260905153252 87 187 0.0 0.0 0.00 0.00 0.00 63 1015.0
20260905152951 86 180 0.0 3.0 0.00 0.00 0.00 63 1015.0
20260905152653 86 180 0.0 3.0 0.00 0.00 0.00 63 1015.0
20260905152051 86 113 0.0 3.0 0.00 0.00 0.00 65 1015.0
20260905151751 86 76 0.0 2.0 0.00 0.00 0.00 65 1015.1
20260905151451 86 82 0.0 0.0 0.00 0.00 0.00 65 1015.1
20260905151153 86 82 0.0 0.0 0.00 0.00 0.00 65 1015.1
20260905150551 86 136 0.0 7.0 0.00 0.00 0.00 65 1015.1
20260905150253 86 175 0.0 2.0 0.00 0.00 0.00 65 1015.1
20260905145953 84 122 2.0 6.0 0.00 0.00 0.00 65 1015.1
20260905145653 84 122 2.0 6.0 0.00 0.00 0.00 65 1015.1
20260905145351 84 150 0.0 6.0 0.00 0.00 0.00 67 1015.1
20260905145051 84 150 0.0 6.0 0.00 0.00 0.00 67 1015.1
20260905144751 84 81 0.0 0.0 0.00 0.00 0.00 69 1015.1
20260905144453 82 184 0.0 4.0 0.00 0.00 0.00 69 1015.2
20260905144153 82 184 0.0 4.0 0.00 0.00 0.00 69 1015.2
20260905143851 82 199 0.0 3.0 0.00 0.00 0.00 71 1016.2
20260905143251 82 218 0.0 2.0 0.00 0.00 0.00 69 1016.2
20260905142951 82 128 0.0 0.0 0.00 0.00 0.00 76 1016.2
20260905142652 82 128 0.0 0.0 0.00 0.00 0.00 76 1016.2
20260905142351 82 151 0.0 0.0 0.00 0.00 0.00 78 1016.2
20260905142051 82 151 0.0 0.0 0.00 0.00 0.00 78 1016.2
20260905141751 80 111 0.0 3.0 0.00 0.00 0.00 84 1016.3
20260905141452 80 189 0.0 4.0 0.00 0.00 0.00 86 1016.3
20260905141153 80 189 0.0 4.0 0.00 0.00 0.00 86 1016.3
20260905140852 78 135 0.0 2.0 0.00 0.00 0.00 88 1016.3
20260905135951 78 146 0.0 0.0 0.00 0.00 0.00 88 1016.4
20260905135651 78 146 0.0 0.0 0.00 0.00 0.00 88 1016.4
20260905135351 78 131 0.0 3.0 0.00 0.00 0.00 86 1016.4
20260905135051 78 131 0.0 3.0 0.00 0.00 0.00 86 1016.4
20260905134751 78 27 0.0 8.0 0.00 0.00 0.00 86 1016.3
20260905134151 78 70 0.0 0.0 0.00 0.00 0.00 84 1016.3
20260905133851 80 99 0.0 5.0 0.00 0.00 0.00 82 1016.3
20260905133551 80 99 0.0 5.0 0.00 0.00 0.00 82 1016.3
20260905132951 80 141 0.0 3.0 0.00 0.00 0.00 84 1016.3
20260905132051 80 115 0.0 10.0 0.00 0.00 0.00 88 1016.3
20260905131751 80 54 0.0 8.0 0.00 0.00 0.00 95 1016.3
20260905131451 78 49 0.0 3.0 0.00 0.00 0.00 95 1016.3
20260905130851 78 44 0.0 3.0 0.00 0.00 0.00 93 1016.4
20260905130551 78 44 0.0 3.0 0.00 0.00 0.00 93 1016.4
20260905130253 78 40 0.0 2.0 0.00 0.00 0.00 91 1016.4
20260905125951 78 91 0.0 7.0 0.00 0.00 0.00 88 1016.3
20260905125652 78 91 0.0 7.0 0.00 0.00 0.00 88 1016.3
20260905125351 80 35 0.0 5.0 0.00 0.00 0.00 88 1015.3
20260905125051 80 35 0.0 5.0 0.00 0.00 0.00 88 1015.3
20260905124751 80 216 0.0 0.0 0.00 0.00 0.00 99 1015.3
20260905124451 80 216 0.0 0.0 0.00 0.00 0.00 99 1015.3
20260905124152 80 216 0.0 0.0 0.00 0.00 0.00 99 1015.3
20260905123851 80 216 0.0 0.0 0.00 0.00 0.00 99 1015.3
20260905123551 80 216 0.0 0.0 0.00 0.00 0.00 99 1015.3
20260905123252 78 216 0.0 0.0 0.00 0.00 0.00 99 1015.3
20260905122951 78 216 0.0 0.0 0.00 0.00 0.00 99 1015.4
20260905122051 77 216 0.0 0.0 0.00 0.00 0.00 99 1015.4
20260905121751 77 216 0.0 0.0 0.00 0.00 0.00 99 1015.5
20260905121451 75 216 0.0 0.0 0.00 0.00 0.00 99 1015.5
20260905121152 75 216 0.0 0.0 0.00 0.00 0.00 99 1015.5
20260905120851 75 216 0.0 0.0 0.00 0.00 0.00 99 1015.5
20260905120551 75 216 0.0 0.0 0.00 0.00 0.00 99 1015.5
20260905120251 75 216 0.0 0.0 0.00 0.00 0.00 99 1015.5
20260905115951 75 216 0.0 0.0 0.00 0.00 0.00 99 1015.5
20260905115651 75 216 0.0 0.0 0.00 0.00 0.00 99 1015.5
20260905115351 75 216 0.0 0.0 0.00 0.00 0.00 99 1014.5
20260905115051 75 216 0.0 0.0 0.00 0.00 0.00 99 1014.5
20260905114751 75 216 0.0 0.0 0.00 0.00 0.00 99 1014.5
20260905114451 75 216 0.0 0.0 0.00 0.00 0.00 99 1014.5
20260905114152 75 216 0.0 0.0 0.00 0.00 0.00 99 1014.5
20260905113851 75 216 0.0 0.0 0.00 0.00 0.00 99 1014.5
20260905113551 75 216 0.0 0.0 0.00 0.00 0.00 99 1014.5
20260905113251 75 216 0.0 3.0 0.00 0.00 0.00 99 1014.5
20260905112951 75 198 0.0 0.0 0.00 0.00 0.00 99 1014.5
20260905112652 75 198 0.0 0.0 0.00 0.00 0.00 99 1014.5
20260905112352 75 203 0.0 0.0 0.00 0.00 0.00 99 1014.5
20260905112051 75 203 0.0 0.0 0.00 0.00 0.00 99 1014.5
20260905111752 75 203 0.0 0.0 0.00 0.00 0.00 99 1014.5
20260905111451 75 203 0.0 0.0 0.00 0.00 0.00 99 1014.5
20260905110552 75 203 0.0 0.0 0.00 0.00 0.00 99 1014.5
20260905110251 75 203 0.0 0.0 0.00 0.00 0.00 99 1014.5
20260905105952 75 203 0.0 0.0 0.00 0.00 0.00 99 1014.5
20260905104751 75 203 0.0 0.0 0.00 0.00 0.00 99 1014.5
20260905104151 75 203 0.0 0.0 0.00 0.00 0.00 99 1014.5
20260905103851 75 203 0.0 0.0 0.00 0.00 0.00 99 1014.5
20260905103551 75 203 0.0 0.0 0.00 0.00 0.00 99 1014.5
20260905102951 75 204 0.0 0.0 0.00 0.00 0.00 99 1014.5
20260905102052 75 203 0.0 0.0 0.00 0.00 0.00 99 1014.5